Regional Weather Roundup
Issued by NWS Charleston, WV

Home | Current Version | Previous Version | Text Only | Print | Product List | Glossary On
Versions: 1 2 3 4 5 6 7 8 9 10 11 12 13 14 15 16 17 18 19 20 21 22 23 24 25 26 27 28 29 30 31 32 33 34 35 36 37 38 39 40 41 42 43 44 45 46 47 48 49 50
000
ASUS41 KRLX 262210
RWRRLX
West Virginia Regional Weather Roundup
National Weather Service Charleston WV
500 PM EST MON JAN 26 2015

Note: "fair" indicates few or no clouds below 12,000 feet with no
significant weather and/or obstructions to visibility.

WVZ003-262300-
Northern Panhandle of West Virginia

CITY           SKY/WX    TMP DP  RH WIND       PRES   REMARKS
WHEELING       FLURRIES  24  19  81 NW12      29.76R
$$

WVZ009-262300-
Northwest West Virginia

CITY           SKY/WX    TMP DP  RH WIND       PRES   REMARKS
PARKERSBURG    CLOUDY    27  22  81 NW8       29.84R
$$

WVZ006-262300-
Western West Virginia

CITY           SKY/WX    TMP DP  RH WIND       PRES   REMARKS
HUNTINGTON     CLOUDY    27  22  81 VRB6      29.86R
$$

WVZ015-262300-
West Central West Virginia

CITY           SKY/WX    TMP DP  RH WIND       PRES   REMARKS
CHARLESTON     FLURRIES  27  22  81 W9        29.83R
$$

WVZ022-031-262300-
North Central West Virginia

CITY           SKY/WX    TMP DP  RH WIND       PRES   REMARKS
CLARKSBURG     LGT SNOW  28  26  92 W7        29.75R VSB 3/4
MORGANTOWN     SNOW      28  24  85 NW5       29.73R VSB 1/2
$$

WVZ025-035-042-045-262300-
Southern West Virginia

CITY           SKY/WX    TMP DP  RH WIND       PRES   REMARKS
BECKLEY        LGT SNOW  25  22  88 W8        29.71R FOG
LOGAN          LGT SNOW  25  23  93 VRB7      29.80R
BLUEFIELD      FLURRIES  26  22  84 W13G24    29.69R
LEWISBURG      CLOUDY    32  27  82 W9        29.66R
$$

WVZ047-262300-
Northern Mountains of West Virginia

CITY           SKY/WX    TMP DP  RH WIND       PRES   REMARKS
ELKINS         LGT SNOW  29  26  89 NW10      29.69R FOG
$$

WVZ052-262300-
Eastern Panhandle of West Virginia

CITY           SKY/WX    TMP DP  RH WIND       PRES   REMARKS
MARTINSBURG    LGT SNOW  27  22  81 N12       29.74R
PETERSBURG     LGT SNOW  32  31  97 CALM      29.71S
$$


USA.gov is the U.S. government's official web portal to all federal, state and local government web resources and services.